Home   Weather   Kitakyushu   Past weeks

Flag for Japan Past Weather in Kitakyushu, Japan — Yesterday and Last 2 Weeks

Now
72 °F

Passing clouds.


Feels Like: 74 °F
Forecast: 69 / 78 °F
Wind: No wind

Location: Kitakyushu Airport

Current Time: Jun 21, 2018 at 2:20:12 am

Latest Report: Jun 21, 2018 at 1:00 am


Visibility: N/A

Pressure: 29.65 "Hg

Humidity: 73%

Dew Point: 63 °F

Location of KitakyushuLocation

Past Weather in Kitakyushu — Graph

°F

Kitakyushu Temperature Yesterday

Maximum temperature yesterday: 77 °F (at 3:00 pm)
Minimum temperature yesterday: 70 °F (at 7:00 am)
Average temperature yesterday: 72 °F

High & Low Weather Summary for the Past Weeks

 TemperatureHumidityPressure
High81 °F (Jun 9, 2:00 pm)94% (Jun 6, 12:38 pm)29.92 "Hg (Jun 6, 12:38 pm)
Low63 °F (Jun 13, 3:00 am)44% (Jun 12, 4:00 pm)29.42 "Hg (Jun 11, 3:00 pm)
Average71 °F76%29.70 "Hg
* Reported Jun 6 1:00 am — Jun 21 1:00 am, Kitakyushu. Weather by CustomWeather, © 2018

Note: Actual official high and low records may vary slightly from our data, if they occured in-between our weather recording intervals... More about our weather records

Advertising

Kitakyushu Weather History for the Previous 24 Hours

Scroll right to see more
 ConditionsComfort  
Time TempWeatherWind HumidityBarometerVisibility
1:00 am
Thu, Jun 21
72 °FPassing clouds.No wind73%29.65 "HgN/A
12:00 am72 °FPassing clouds.5 mph78%29.65 "HgN/A
11:00 pm
Wed, Jun 20
72 °FPartly cloudy.5 mph78%29.65 "HgN/A
10:00 pm72 °FPassing clouds.7 mph78%29.65 "HgN/A
9:00 pm72 °FPassing clouds.2 mph73%29.62 "HgN/A
8:00 pm72 °FPassing clouds.9 mph78%29.59 "HgN/A
7:00 pm73 °FPartly sunny.12 mph69%29.59 "HgN/A
6:00 pm73 °FBroken clouds.14 mph69%29.56 "HgN/A
5:00 pm77 °FPartly sunny.10 mph61%29.56 "HgN/A
4:00 pm77 °FBroken clouds.14 mph61%29.56 "HgN/A
3:00 pm77 °FPartly sunny.10 mph69%29.56 "HgN/A
2:00 pm73 °FScattered showers. Broken clouds.1 mph74%29.56 "HgN/A
1:00 pm72 °FLight rain. Partly sunny.2 mph78%29.56 "HgN/A
12:00 pm73 °FLight rain. Partly sunny.2 mph74%29.59 "HgN/A
11:00 am73 °FBroken clouds.2 mph74%29.59 "HgN/A
10:00 am72 °FLight rain. Broken clouds.2 mph83%29.59 "HgN/A
9:00 am72 °FLight rain. Broken clouds.3 mph83%29.59 "HgN/A
8:33 am72 °FLight rain. Broken clouds.7 mph83%29.59 "HgN/A
7:36 am70 °FRain. Fog.9 mph88%29.59 "Hg3 mi
7:00 am70 °FLight rain. Broken clouds.10 mph88%29.59 "HgN/A
6:21 am72 °FLight rain. Broken clouds.6 mph88%29.56 "HgN/A
5:46 am72 °FLight rain. Fog.5 mph88%29.56 "Hg3 mi
5:00 am72 °FLight rain. Partly cloudy.5 mph88%29.56 "HgN/A
4:13 am72 °FSprinkles. Partly cloudy.7 mph88%29.53 "HgN/A
4:00 am72 °FLots of rain. Fog.9 mph88%29.56 "Hg1 mi
3:35 am72 °FLots of rain. Fog.5 mph88%29.56 "Hg1 mi
3:18 am72 °FLots of rain. Fog.3 mph88%29.53 "Hg2 mi
3:00 am72 °FLots of rain. Fog.8 mph88%29.53 "Hg2 mi
2:22 am72 °FRain showers. Fog.10 mph88%29.53 "Hg3 mi
2:09 am72 °FLots of rain. Fog.10 mph88%29.53 "Hg1 mi
Weather by CustomWeather, © 2018

See weather overview